Weather in Saint John

Canada     45°16′26″N   66°03′52″W
temp.,
°C
wind,
m/s
gust,
m/s
humid.,
%
clouds,
%
prec.,
mm/h
press.,
hPa
HPBL,
m
21 april, wed
wed2100:00+9wnw41173100 0.0 1011533
03:00+7w3106656 0.0 1013371
06:00+5wsw1168100 0.0 101322
09:00+6wsw2470100 0.2 1013247
12:00+11se3855100 0.0 1010672
15:00+11ssw614715 0.0 1008718
18:00+11ssw7168447 0.3 1005719
21:00+10s6169114 1.6 1002714
22 april, thu
thu2200:00+9s6169577 1.9 998641
03:00+9s61497100 2.4 994562
06:00+9s61498100 2.4 991668
09:00+7ssw61297100 5.4 989580
12:00+4wsw71190100 0.2 989806
15:00+4wsw81281100 0.7 9901425
18:00+4w81482100 1.1 9921424
21:00+2wsw81477100 1.3 9941097
23 april, fri
fri2300:00+1wsw9147488 0.0 9951085
03:000wsw81569100 0.0 9961097
06:000wsw9156478 0.0 9961200
09:00+2wsw81457100 0.0 9981330
12:00+5w81252100 0.0 9981698
15:00+7w71254100 0.0 9991684
18:00+9w61352100 0.0 10011744
21:00+6w6136490 0.0 1003878
24 april, sat
sat2400:00+5w615725 0.0 1005690
03:00+4w513770 0.0 1006505
06:00+3w514845 0.0 1008428
09:00+7wnw612665 0.0 1010797
12:00+12wnw595116 0.0 10121169
15:00+14wnw594890 0.0 10121923
18:00+13w475725 0.0 10141257
21:00+7ssw228471 0.0 101619
25 april, sun
sun2500:00+6ssw118631 0.0 101712
03:00+6sse118970 0.0 101613
06:00+5sse1196100 0.0 101612
09:00+8se3679100 0.0 1016235
12:00+10se3765100 0.0 1016538
15:00+12sse2559100 0.0 1014733
18:00+12ese4859100 0.0 1011814
21:00+8e71383100 0.4 1010510